Weather in Tavas

Turkey     37°34′29″N   29°03′54″E
temp.,
°C
wind,
m/s
gust,
m/s
humid.,
%
clouds,
%
prec.,
mm/h
press.,
hPa
HPBL,
m
4 march, thu
thu400:000ne23580 0.0 102424
03:000ne23630 0.0 102326
06:00−1ene23680 0.0 102328
09:00+3ene23530 0.0 1022128
12:00+9nne23270 0.0 1020555
15:00+12n32230 0.0 1018854
18:00+10n22310 0.0 1017284
21:00+3ne11480 0.0 102022
5 march, fri
fri500:00+2ese00450 0.0 102022
03:00+1ese01410 0.0 102022
06:00+1s11400 0.0 102022
09:00+7s11350 0.0 102151
12:00+12wsw33220 0.0 1020749
15:00+14w55230 0.0 10191255
18:00+12wsw45360 0.0 1019411
21:00+5sw12603 0.0 102222
6 march, sat
sat600:00+5s126579 0.0 102322
03:00+3s126189 0.0 102322
06:00+2sse125987 0.0 102222
09:00+6sse224494 0.0 102356
12:00+8se3453100 0.4 1022357
15:00+12wsw784996 0.4 10201433
18:00+10wsw675931 0.0 10201033
21:00+5ssw238716 0.0 102228
7 march, sun
sun700:00+4ssw12900 0.0 102323
03:00+2s01890 0.0 102222
06:00+1nne11890 0.0 102122
09:00+6ne11740 0.0 1022107
12:00+10nw11560 0.0 10201066
15:00+12wnw44484 0.1 10171550
18:00+10nw335355 0.1 10171245
21:00+5nnw127835 0.2 101822
8 march, mon
mon800:00+4n11853 0.0 101822
03:00+2nnw11904 0.0 101722
06:00+1n01936 0.0 101722
09:00+5nw00805 0.0 1017133
12:00+10w465213 0.0 10151319
15:00+11w675415 0.7 10141381
18:00+10wnw565821 0.5 10141239
21:00+5nne118611 0.6 101522